2016 LY48

Initial reported observation by Mt. Lemmon Survey on 2016-06-11.
(Discoverer will be defined when the object is numbered. See this note on how discoverers are determined.)

Orbit

Orbit type: Apollo
Near-Earth Object

Note: WebGL enabled browser required.

epoch2023-09-13.0
epoch JD2460200.5
perihelion date2023-08-22.88900
perihelion JD2460179.38900
argument of perihelion (°)155.34372
ascending node (°)165.83811
inclination (°)4.15022
eccentricity0.5936695
perihelion distance (AU)0.9415544
Tisserand w.r.t. Jupiter3.3
ΔV w.r.t. Earth (km/sec)6.5
semimajor axis (AU)2.3172135
mean anomaly (°)5.89880
mean daily motion (°/day)0.27941830
aphelion distance (AU)3.693
period (years)3.53
P-vector [x]0.77940684
P-vector [y]-0.58616086
P-vector [z]-0.22122481
Q-vector [x]0.62626787
Q-vector [y]0.73888930
Q-vector [z]0.24865870
absolute magnitude22.88
phase slope0.15
uncertainty0
referenceMPEC 2023-W29
observations used138
oppositions4
arc length (days)2688
first opposition used2016
last opposition used2023
residual rms (arc-secs)0.72
perturbers coarse indicatorM-v
perturbers precise indicator003Ek
first observation date used2016-06-11.0
last observation date used2023-10-21.0
computer nameMPCLINUX
JD of orbit computation2457702.303612
perihelion JD uncertainty (days)5.6855E-05
argument of perihelion uncertainty (°)2.5839E-04
ascending node uncertainty (°)2.7797E-04
inclination uncertainty (°)6.4294E-05
eccentricity uncertainty 1.2147E-05
perihelion distance uncertainty (AU)1.2766E-06
Minimum Orbit Intersection Distances (in AU)
for orbit epoch: 2460200.5, reference: E2023-W29
Mercury0.53095
Venus0.22423
Earth0.01109
Mars0.0933
Jupiter1.66047
Saturn5.52851
Uranus14.8091
Neptune26.7098

Observations

146 total observations over interval: 2016 06 11.33644 – 2023 10 21.456948
These data are available for download (format description).

